Regional Weather Roundup
Issued by NWS

Home | Current Version | Previous Version | Text Only | Print | Product List | Glossary On
Versions: 1 2 3 4 5 6 7 8 9 10 11 12 13 14 15 16 17 18 19 20 21 22 23 24 25 26 27
000
ASPQ40 PGUM 232112
RWRPQ
WEATHER ROUNDUP FOR THE MARIANAS AND MICRONESIA
NATIONAL WEATHER SERVICE TIYAN GU
700 AM CHST TUE JAN 24 2017

GUZ001>004-232200-
MARIANA ISLANDS-

CITY           SKY/WX    TMP DP  RH WIND       PRES   REMARKS
GUAM AIRPORT   CLEAR     77  73  88 NE10      29.98R
ANDERSEN AFB   PTCLDY    77  72  83 NE20G26   29.99R
ROTA AIRPORT   MOCLDY    77  72  83 NE16G24   30.00R
TINIAN AP      LGT RAIN  73  70  88 NE9       29.99R
SAIPAN AP      LGT RAIN  75  72  88 NE14G22   30.00R FOG

$$

PMZ161-232200-
REPUBLIC OF PALAU-

CITY           SKY/WX    TMP DP  RH WIND       PRES   REMARKS
KOROR AP       NOT AVBL
KOROR WSO      MOCLDY    79  77  94 E7        29.85R

$$

PMZ171>174-232200-
FEDERATED STATES OF MICRONESIA-

CITY           SKY/WX    TMP DP  RH WIND       PRES   REMARKS
YAP AIRPORT    LGT RAIN  79  75  89 NE12      29.86R
CHUUK AP       CLOUDY    79  75  89 VRB5      29.83R
POHNPEI AP     CLOUDY    79  75  89 E9        29.83
POHNPEI WSO    CLOUDY    82  75  78 E5        29.89R
KOSRAE AP      NOT AVBL

$$

PMZ181-232200-
REPUBLIC OF THE MARSHALL ISLANDS-

CITY           SKY/WX    TMP DP  RH WIND       PRES   REMARKS
KWAJALEIN AP   MOSUNNY   82  75  78 E24G30    29.85S
MAJURO AP      PTSUNNY   82  79  89 NE23      29.84  HX  93
MAJURO WSO     PTSUNNY   82  77  83 NE12      29.84R HX  91

$$





USA.gov is the U.S. government's official web portal to all federal, state and local government web resources and services.